When you browse on this site, cookies collect data to enhance your experience and personalize the content and advertising you see.
Visit our Privacy Policy to learn more. By continuing to use the site, you agree to this use of cookies and data.
  • In Schweiz
  • Länderverzeichnis
  • Für 7 Tage
  • Wassertemperatur
  • Wetterkarte
  • Widgets
  • user-avatar
    Anmelden

    Stündliche Wetter Paiporta

    Heute, 13 Dezember, Freitag

    Zeit Temperatur Niederschläge Wind Luftdruck Luftfeuchtigkeit
    00:00 +14°C° 0 mm 10 m/S 754 mmHg 66%
    01:00 +14°C° 0 mm 10 m/S 754 mmHg 65%
    02:00 +16°C° 0 mm 10 m/S 754 mmHg 65%
    03:00 +16°C° 0 mm 10 m/S 753 mmHg 65%
    04:00 +16°C° 0 mm 10 m/S 753 mmHg 64%
    05:00 +16°C° 0 mm 9 m/S 753 mmHg 62%
    06:00 +17°C° 0 mm 9 m/S 753 mmHg 61%
    07:00 +17°C° 0 mm 10 m/S 754 mmHg 60%
    08:00 +17°C° 0 mm 10 m/S 754 mmHg 59%
    09:00 +17°C° 0 mm 10 m/S 755 mmHg 58%
    10:00 +18°C° 0 mm 11 m/S 755 mmHg 54%
    11:00 +19°C° 0 mm 11 m/S 755 mmHg 51%
    12:00 +21°C° 0 mm 12 m/S 755 mmHg 47%
    13:00 +21°C° 0 mm 10 m/S 755 mmHg 48%
    14:00 +21°C° 0 mm 9 m/S 755 mmHg 49%
    15:00 +21°C° 0 mm 8 m/S 755 mmHg 49%
    16:00 +20°C° 0 mm 8 m/S 756 mmHg 52%
    17:00 +17°C° 0 mm 8 m/S 756 mmHg 55%
    18:00 +16°C° 0 mm 7 m/S 757 mmHg 57%
    19:00 +16°C° 0 mm 8 m/S 757 mmHg 58%
    20:00 +16°C° 0 mm 9 m/S 758 mmHg 59%
    21:00 +16°C° 0 mm 10 m/S 758 mmHg 60%
    22:00 +16°C° 0 mm 10 m/S 758 mmHg 62%
    23:00 +15°C° 0 mm 9 m/S 759 mmHg 63%

    Morgen, 14 Dezember, Samstag

    Zeit Temperatur Niederschläge Wind Luftdruck Luftfeuchtigkeit
    00:00 +15°C° 0 mm 9 m/S 759 mmHg 65%
    01:00 +15°C° 0 mm 9 m/S 759 mmHg 66%
    02:00 +13°C° 0 mm 9 m/S 759 mmHg 67%
    03:00 +13°C° 0 mm 9 m/S 759 mmHg 69%
    04:00 +12°C° 0 mm 8 m/S 759 mmHg 70%
    05:00 +12°C° 0 mm 7 m/S 759 mmHg 72%
    06:00 +11°C° 0 mm 7 m/S 759 mmHg 74%
    07:00 +13°C° 0 mm 6 m/S 760 mmHg 71%
    08:00 +14°C° 0 mm 6 m/S 760 mmHg 69%
    09:00 +14°C° 0 mm 6 m/S 761 mmHg 67%
    10:00 +15°C° 0 mm 6 m/S 760 mmHg 62%
    11:00 +16°C° 0 mm 6 m/S 760 mmHg 58%
    12:00 +17°C° 0 mm 6 m/S 760 mmHg 54%
    13:00 +17°C° 0 mm 6 m/S 760 mmHg 55%
    14:00 +17°C° 0 mm 6 m/S 760 mmHg 55%
    15:00 +17°C° 0 mm 5 m/S 759 mmHg 56%
    16:00 +16°C° 0 mm 5 m/S 760 mmHg 58%
    17:00 +15°C° 0 mm 5 m/S 760 mmHg 60%
    18:00 +14°C° 0 mm 5 m/S 760 mmHg 62%
    19:00 +14°C° 0 mm 5 m/S 760 mmHg 62%
    20:00 +14°C° 0 mm 5 m/S 761 mmHg 63%
    21:00 +13°C° 0 mm 5 m/S 761 mmHg 64%
    22:00 +13°C° 0 mm 4 m/S 761 mmHg 65%
    23:00 +12°C° 0 mm 4 m/S 761 mmHg 67%

    übermorgen, 15 Dezember, Sonntag

    Zeit Temperatur Niederschläge Wind Luftdruck Luftfeuchtigkeit
    00:00 +12°C° 0 mm 4 m/S 761 mmHg 69%
    01:00 +12°C° 0 mm 4 m/S 761 mmHg 69%
    02:00 +11°C° 0 mm 4 m/S 760 mmHg 70%
    03:00 +11°C° 0 mm 4 m/S 760 mmHg 70%
    04:00 +11°C° 0 mm 4 m/S 760 mmHg 71%
    05:00 +11°C° 0 mm 3 m/S 760 mmHg 72%
    06:00 +11°C° 0 mm 3 m/S 760 mmHg 73%
    07:00 +11°C° 0 mm 3 m/S 760 mmHg 71%
    08:00 +12°C° 0 mm 3 m/S 760 mmHg 69%
    09:00 +13°C° 0 mm 3 m/S 761 mmHg 67%
    10:00 +14°C° 0 mm 3 m/S 760 mmHg 62%
    11:00 +17°C° 0 mm 3 m/S 760 mmHg 57%
    12:00 +18°C° 0 mm 3 m/S 760 mmHg 52%
    13:00 +18°C° 0 mm 3 m/S 759 mmHg 52%
    14:00 +18°C° 0 mm 3 m/S 759 mmHg 53%
    15:00 +18°C° 0 mm 3 m/S 758 mmHg 54%
    16:00 +17°C° 0 mm 2 m/S 758 mmHg 59%
    17:00 +15°C° 0 mm 2 m/S 758 mmHg 63%
    18:00 +14°C° 0 mm 2 m/S 758 mmHg 68%
    19:00 +14°C° 0 mm 2 m/S 758 mmHg 69%
    20:00 +13°C° 0 mm 1 m/S 758 mmHg 71%
    21:00 +13°C° 0 mm 1 m/S 758 mmHg 72%
    22:00 +13°C° 0 mm 1 m/S 758 mmHg 73%
    23:00 +12°C° 0 mm 1 m/S 757 mmHg 74%

    16 Dezember, Montag

    Zeit Temperatur Niederschläge Wind Luftdruck Luftfeuchtigkeit
    00:00 +12°C° 0 mm 1 m/S 757 mmHg 75%
    01:00 +12°C° 0 mm 1 m/S 756 mmHg 75%
    02:00 +12°C° 0 mm 1 m/S 756 mmHg 76%
    03:00 +11°C° 0 mm 1 m/S 756 mmHg 77%
    04:00 +11°C° 0 mm 1 m/S 755 mmHg 77%
    05:00 +11°C° 0 mm 1 m/S 755 mmHg 78%
    06:00 +11°C° 0 mm 1 m/S 754 mmHg 78%
    07:00 +12°C° 0 mm 1 m/S 754 mmHg 76%
    08:00 +13°C° 0 mm 1 m/S 754 mmHg 73%
    09:00 +13°C° 0 mm 1 m/S 754 mmHg 71%
    10:00 +14°C° 0 mm 1 m/S 753 mmHg 70%
    11:00 +15°C° 0 mm 1 m/S 753 mmHg 69%
    12:00 +16°C° 0 mm 1 m/S 752 mmHg 68%
    13:00 +16°C° 0 mm 1 m/S 751 mmHg 71%
    14:00 +16°C° 0 mm 1 m/S 751 mmHg 74%
    15:00 +16°C° 0 mm 1 m/S 750 mmHg 77%
    16:00 +15°C° 0 mm 1 m/S 750 mmHg 82%
    17:00 +14°C° 0 mm 1 m/S 750 mmHg 87%
    18:00 +13°C° 0 mm 1 m/S 750 mmHg 93%
    19:00 +12°C° 0 mm 1 m/S 750 mmHg 93%
    20:00 +12°C° 0 mm 1 m/S 750 mmHg 93%
    21:00 +12°C° 0 mm 1 m/S 750 mmHg 93%
    22:00 +12°C° 0 mm 1 m/S 750 mmHg 93%
    23:00 +12°C° 0 mm 1 m/S 750 mmHg 92%

    17 Dezember, Dienstag

    Zeit Temperatur Niederschläge Wind Luftdruck Luftfeuchtigkeit
    00:00 +12°C° 0 mm 2 m/S 749 mmHg 92%
    01:00 +12°C° 0 mm 2 m/S 749 mmHg 92%
    02:00 +11°C° 0 mm 3 m/S 749 mmHg 91%
    03:00 +11°C° 0 mm 3 m/S 748 mmHg 90%
    04:00 +11°C° 0 mm 3 m/S 748 mmHg 89%
    05:00 +13°C° 0 mm 2 m/S 748 mmHg 87%
    06:00 +13°C° 0 mm 2 m/S 748 mmHg 86%
    07:00 +13°C° 0.2 mm 2 m/S 749 mmHg 86%
    08:00 +13°C° 0.2 mm 2 m/S 749 mmHg 86%
    09:00 +14°C° 0.2 mm 2 m/S 749 mmHg 87%
    10:00 +15°C° 0.2 mm 2 m/S 750 mmHg 79%
    11:00 +14°C° 0.2 mm 3 m/S 750 mmHg 71%
    12:00 +15°C° 0.2 mm 4 m/S 750 mmHg 62%
    13:00 +15°C° 0.3 mm 4 m/S 751 mmHg 67%
    14:00 +14°C° 0.3 mm 4 m/S 751 mmHg 71%
    15:00 +13°C° 0.3 mm 4 m/S 751 mmHg 75%
    16:00 +13°C° 0.2 mm 4 m/S 752 mmHg 81%
    17:00 +12°C° 0.2 mm 3 m/S 752 mmHg 86%
    18:00 +11°C° 0.2 mm 3 m/S 753 mmHg 91%
    19:00 +11°C° 0.2 mm 3 m/S 753 mmHg 90%
    20:00 +11°C° 0.2 mm 3 m/S 754 mmHg 89%
    21:00 +11°C° 0.2 mm 3 m/S 754 mmHg 88%
    22:00 +11°C° 0.2 mm 3 m/S 754 mmHg 86%
    23:00 +12°C° 0.2 mm 3 m/S 754 mmHg 85%

    18 Dezember, Mittwoch

    Zeit Temperatur Niederschläge Wind Luftdruck Luftfeuchtigkeit
    00:00 +12°C° 0.2 mm 4 m/S 754 mmHg 83%
    01:00 +12°C° 0.2 mm 4 m/S 754 mmHg 81%
    02:00 +12°C° 0.2 mm 5 m/S 754 mmHg 80%
    03:00 +12°C° 0.2 mm 5 m/S 754 mmHg 79%
    04:00 +12°C° 0.3 mm 5 m/S 755 mmHg 78%
    05:00 +12°C° 0.3 mm 5 m/S 755 mmHg 77%
    06:00 +12°C° 0.3 mm 5 m/S 755 mmHg 76%
    07:00 +13°C° 0.4 mm 5 m/S 755 mmHg 76%
    08:00 +13°C° 0.4 mm 5 m/S 756 mmHg 75%
    09:00 +14°C° 0.4 mm 5 m/S 757 mmHg 75%
    10:00 +15°C° 0.1 mm 5 m/S 757 mmHg 73%
    11:00 +16°C° 0.1 mm 5 m/S 757 mmHg 72%
    12:00 +17°C° 0.1 mm 5 m/S 757 mmHg 71%
    13:00 +17°C° 0.2 mm 5 m/S 757 mmHg 70%
    14:00 +18°C° 0.2 mm 4 m/S 757 mmHg 68%
    15:00 +18°C° 0.2 mm 4 m/S 757 mmHg 67%
    16:00 +17°C° 0.1 mm 3 m/S 757 mmHg 69%
    17:00 +16°C° 0.1 mm 3 m/S 758 mmHg 71%
    18:00 +15°C° 0.1 mm 2 m/S 758 mmHg 74%
    19:00 +15°C° 0.1 mm 2 m/S 758 mmHg 74%
    20:00 +15°C° 0.1 mm 2 m/S 759 mmHg 74%
    21:00 +15°C° 0.1 mm 2 m/S 759 mmHg 74%
    22:00 +13°C° 0 mm 3 m/S 759 mmHg 75%
    23:00 +13°C° 0 mm 3 m/S 759 mmHg 75%
    Mehr zeigen